Time,TemperatureF,DewpointF,PressureIn,WindDirection,WindDirectionDegrees,WindSpeedMPH,WindSpeedGustMPH,Humidity,HourlyPrecipIn,Conditions,Clouds,dailyrainin,SoftwareType,DateUTC
2013-08-29 00:12:00,74.0,55.0,26.56,SSE,166,0.0,1.0,51,0.00,,,0.00,,2013-08-29 06:12:00,
2013-08-29 00:22:00,73.0,54.0,26.56,SSE,165,0.0,0.0,51,0.00,,,0.00,,2013-08-29 06:22:00,
2013-08-29 00:52:00,74.0,55.0,26.55,SSE,165,0.0,0.0,51,0.00,,,0.00,,2013-08-29 06:52:00,
2013-08-29 01:12:00,75.0,54.0,26.55,SSE,166,0.0,0.0,48,0.00,,,0.00,,2013-08-29 07:12:00,
2013-08-29 01:22:00,78.0,54.0,26.55,SSE,166,0.0,1.0,43,0.00,,,0.00,,2013-08-29 07:22:00,
2013-08-29 01:53:00,77.0,55.0,26.56,ESE,116,4.0,8.0,46,0.00,,,0.00,,2013-08-29 07:53:00,
2013-08-29 02:12:00,82.0,50.0,26.56,SW,236,8.0,18.0,33,0.00,,,0.00,,2013-08-29 08:12:00,
2013-08-29 02:22:00,85.0,50.0,26.55,WSW,245,4.0,11.0,30,0.00,,,0.00,,2013-08-29 08:22:00,
2013-08-29 02:42:00,83.0,49.0,26.55,WSW,238,4.0,8.0,31,0.00,,,0.00,,2013-08-29 08:42:00,
2013-08-29 02:52:00,82.0,49.0,26.56,West,269,2.0,7.0,32,0.00,,,0.00,,2013-08-29 08:52:00,
2013-08-29 03:12:00,81.0,52.0,26.56,West,263,0.0,5.0,36,0.00,,,0.00,,2013-08-29 09:12:00,
2013-08-29 03:22:00,79.0,52.0,26.56,West,263,0.0,0.0,39,0.00,,,0.00,,2013-08-29 09:22:00,
2013-08-29 03:43:00,77.0,50.0,26.56,West,263,0.0,0.0,39,0.00,,,0.00,,2013-08-29 09:43:00,
2013-08-29 03:55:00,78.0,52.0,26.56,West,263,2.0,4.0,41,0.00,,,0.00,,2013-08-29 09:55:00,
2013-08-29 04:14:00,77.0,49.0,26.56,South,191,5.0,6.0,37,0.00,,,0.00,,2013-08-29 10:14:00,
2013-08-29 04:24:00,80.0,49.0,26.55,SSE,160,3.0,7.0,34,0.00,,,0.00,,2013-08-29 10:24:00,
2013-08-29 04:53:00,75.0,50.0,26.55,SSE,160,0.0,2.0,41,0.00,,,0.00,,2013-08-29 10:53:00,
2013-08-29 05:12:00,74.0,49.0,26.57,NE,35,1.0,6.0,42,0.00,,,0.00,,2013-08-29 11:12:00,
2013-08-29 05:22:00,76.0,50.0,26.57,NE,35,0.0,0.0,40,0.00,,,0.00,,2013-08-29 11:22:00,
2013-08-29 05:42:00,77.0,48.0,26.57,NE,36,0.0,1.0,36,0.00,,,0.00,,2013-08-29 11:42:00,
2013-08-29 05:52:00,78.0,49.0,26.58,ENE,64,0.0,6.0,36,0.00,,,0.00,,2013-08-29 11:52:00,
2013-08-29 06:11:00,78.0,53.0,26.59,NNW,342,3.0,8.0,42,0.00,,,0.00,,2013-08-29 12:11:00,
2013-08-29 06:22:00,78.0,56.0,26.59,NNW,337,3.0,8.0,47,0.00,,,0.00,,2013-08-29 12:22:00,
2013-08-29 06:42:00,78.0,56.0,26.60,NNW,344,6.0,11.0,47,0.00,,,0.00,,2013-08-29 12:42:00,
2013-08-29 06:52:00,79.0,57.0,26.60,NW,322,4.0,8.0,47,0.00,,,0.00,,2013-08-29 12:52:00,
2013-08-29 07:12:00,78.0,56.0,26.61,NNW,329,0.0,5.0,47,0.00,,,0.00,,2013-08-29 13:12:00,
2013-08-29 07:22:00,78.0,56.0,26.62,NW,306,0.0,6.0,47,0.00,,,0.00,,2013-08-29 13:22:00,
2013-08-29 07:42:00,78.0,57.0,26.62,NW,309,1.0,5.0,48,0.00,,,0.00,,2013-08-29 13:42:00,
2013-08-29 07:52:00,79.0,58.0,26.62,West,279,3.0,7.0,48,0.00,,,0.00,,2013-08-29 13:52:00,
2013-08-29 08:11:00,80.0,58.0,26.62,NNW,338,1.0,7.0,47,0.00,,,0.00,,2013-08-29 14:11:00,
2013-08-29 08:21:00,80.0,58.0,26.63,North,360,2.0,7.0,47,0.00,,,0.00,,2013-08-29 14:21:00,
2013-08-29 08:42:00,81.0,58.0,26.63,North,5,2.0,4.0,46,0.00,,,0.00,,2013-08-29 14:42:00,
2013-08-29 08:52:00,82.0,59.0,26.63,North,355,1.0,6.0,45,0.00,,,0.00,,2013-08-29 14:52:00,
2013-08-29 09:12:00,84.0,60.0,26.64,NNE,32,5.0,8.0,44,0.00,,,0.00,,2013-08-29 15:12:00,
2013-08-29 09:21:00,85.0,61.0,26.64,North,10,8.0,18.0,45,0.00,,,0.00,,2013-08-29 15:21:00,
2013-08-29 09:43:00,86.0,62.0,26.64,NNE,30,8.0,16.0,44,0.00,,,0.00,,2013-08-29 15:43:00,
2013-08-29 09:53:00,86.0,60.0,26.64,NNE,24,10.0,20.0,42,0.00,,,0.00,,2013-08-29 15:53:00,
2013-08-29 10:13:00,86.0,60.0,26.64,NE,37,9.0,19.0,41,0.00,,,0.00,,2013-08-29 16:13:00,
2013-08-29 10:24:00,86.0,59.0,26.64,NE,34,10.0,22.0,40,0.00,,,0.00,,2013-08-29 16:24:00,
2013-08-29 10:43:00,87.0,59.0,26.65,NNW,329,10.0,19.0,39,0.00,,,0.00,,2013-08-29 16:43:00,
2013-08-29 10:54:00,87.0,58.0,26.65,NE,44,10.0,16.0,38,0.00,,,0.00,,2013-08-29 16:54:00,
2013-08-29 11:13:00,88.0,58.0,26.65,NE,43,9.0,18.0,37,0.00,,,0.00,,2013-08-29 17:13:00,
2013-08-29 11:22:00,87.0,58.0,26.66,NNE,25,11.0,23.0,37,0.00,,,0.00,,2013-08-29 17:22:00,
2013-08-29 11:44:00,87.0,59.0,26.66,NNE,13,10.0,19.0,39,0.00,,,0.00,,2013-08-29 17:44:00,
2013-08-29 11:53:00,88.0,58.0,26.66,North,360,8.0,19.0,36,0.00,,,0.00,,2013-08-29 17:53:00,
2013-08-29 12:12:00,88.0,57.0,26.67,NNE,32,8.0,21.0,35,0.00,,,0.00,,2013-08-29 18:12:00,
2013-08-29 12:21:00,88.0,57.0,26.66,NE,44,11.0,20.0,35,0.00,,,0.00,,2013-08-29 18:21:00,
2013-08-29 12:42:00,89.0,57.0,26.66,NW,321,9.0,16.0,34,0.00,,,0.00,,2013-08-29 18:42:00,
2013-08-29 12:52:00,89.0,58.0,26.66,NE,49,13.0,22.0,35,0.00,,,0.00,,2013-08-29 18:52:00,
2013-08-29 13:11:00,89.0,58.0,26.65,North,10,11.0,19.0,35,0.00,,,0.00,,2013-08-29 19:11:00,
2013-08-29 13:22:00,90.0,56.0,26.65,NNE,32,13.0,20.0,32,0.00,,,0.00,,2013-08-29 19:22:00,
2013-08-29 13:42:00,90.0,57.0,26.65,NE,36,7.0,19.0,33,0.00,,,0.00,,2013-08-29 19:42:00,
2013-08-29 13:53:00,90.0,57.0,26.65,NNE,30,11.0,18.0,33,0.00,,,0.00,,2013-08-29 19:53:00,
2013-08-29 14:13:00,91.0,57.0,26.65,NNE,33,13.0,22.0,32,0.00,,,0.00,,2013-08-29 20:13:00,
2013-08-29 14:22:00,91.0,56.0,26.65,ENE,63,10.0,21.0,31,0.00,,,0.00,,2013-08-29 20:22:00,
2013-08-29 14:42:00,91.0,56.0,26.65,NNE,32,11.0,22.0,31,0.00,,,0.00,,2013-08-29 20:42:00,
2013-08-29 14:52:00,91.0,56.0,26.64,NNW,330,11.0,22.0,31,0.00,,,0.00,,2013-08-29 20:52:00,
2013-08-29 15:12:00,90.0,56.0,26.64,NE,44,11.0,21.0,32,0.00,,,0.00,,2013-08-29 21:12:00,
2013-08-29 15:22:00,92.0,58.0,26.65,ENE,61,10.0,16.0,32,0.00,,,0.00,,2013-08-29 21:22:00,
2013-08-29 15:44:00,90.0,57.0,26.64,NNE,33,8.0,18.0,33,0.00,,,0.00,,2013-08-29 21:44:00,
2013-08-29 15:54:00,92.0,58.0,26.64,NE,46,9.0,15.0,32,0.00,,,0.00,,2013-08-29 21:54:00,
2013-08-29 16:14:00,92.0,56.0,26.64,NW,319,9.0,14.0,30,0.00,,,0.00,,2013-08-29 22:14:00,
2013-08-29 16:24:00,92.0,56.0,26.64,NE,36,13.0,20.0,30,0.00,,,0.00,,2013-08-29 22:24:00,
2013-08-29 16:43:00,91.0,55.0,26.64,North,5,14.0,22.0,30,0.00,,,0.00,,2013-08-29 22:43:00,
2013-08-29 16:53:00,92.0,56.0,26.64,NNE,29,7.0,15.0,30,0.00,,,0.00,,2013-08-29 22:53:00,
2013-08-29 17:13:00,91.0,55.0,26.64,NNE,32,10.0,20.0,30,0.00,,,0.00,,2013-08-29 23:13:00,
2013-08-29 17:22:00,91.0,56.0,26.64,North,360,10.0,18.0,31,0.00,,,0.00,,2013-08-29 23:22:00,
2013-08-29 17:53:00,91.0,55.0,26.65,NE,48,8.0,19.0,30,0.00,,,0.00,,2013-08-29 23:53:00,
2013-08-29 18:12:00,91.0,55.0,26.65,NNE,28,7.0,15.0,30,0.00,,,0.00,,2013-08-30 00:12:00,
2013-08-29 18:21:00,89.0,54.0,26.65,NE,39,9.0,18.0,30,0.00,,,0.00,,2013-08-30 00:21:00,
2013-08-29 18:42:00,89.0,56.0,26.66,ENE,59,6.0,12.0,33,0.00,,,0.00,,2013-08-30 00:42:00,
2013-08-29 18:52:00,89.0,56.0,26.66,NE,36,8.0,13.0,33,0.00,,,0.00,,2013-08-30 00:52:00,
2013-08-29 19:12:00,88.0,56.0,26.67,NNE,23,5.0,12.0,34,0.00,,,0.00,,2013-08-30 01:12:00,
2013-08-29 19:22:00,88.0,56.0,26.66,North,5,5.0,10.0,34,0.00,,,0.00,,2013-08-30 01:22:00,
2013-08-29 19:42:00,87.0,57.0,26.67,North,355,2.0,6.0,36,0.00,,,0.00,,2013-08-30 01:42:00,
2013-08-29 19:52:00,86.0,56.0,26.67,NE,44,1.0,7.0,36,0.00,,,0.00,,2013-08-30 01:52:00,
2013-08-29 20:11:00,85.0,57.0,26.67,NE,44,0.0,2.0,38,0.00,,,0.00,,2013-08-30 02:11:00,
2013-08-29 20:21:00,84.0,57.0,26.68,NE,44,0.0,2.0,40,0.00,,,0.00,,2013-08-30 02:21:00,
2013-08-29 20:42:00,83.0,57.0,26.68,NE,44,0.0,0.0,41,0.00,,,0.00,,2013-08-30 02:42:00,
2013-08-29 20:52:00,82.0,57.0,26.69,NE,44,0.0,2.0,42,0.00,,,0.00,,2013-08-30 02:52:00,
2013-08-29 21:12:00,82.0,58.0,26.69,NE,44,0.0,0.0,44,0.00,,,0.00,,2013-08-30 03:12:00,
2013-08-29 21:22:00,81.0,58.0,26.70,NE,44,0.0,0.0,45,0.00,,,0.00,,2013-08-30 03:22:00,
2013-08-29 21:55:00,79.0,57.0,26.70,NE,44,0.0,2.0,47,0.00,,,0.00,,2013-08-30 03:55:00,
2013-08-29 22:14:00,79.0,58.0,26.70,NE,44,0.0,0.0,48,0.00,,,0.00,,2013-08-30 04:14:00,
2013-08-29 22:24:00,78.0,57.0,26.70,NW,321,0.0,1.0,49,0.00,,,0.00,,2013-08-30 04:24:00,
2013-08-29 22:54:00,77.0,57.0,26.70,NW,321,0.0,0.0,50,0.00,,,0.00,,2013-08-30 04:54:00,
2013-08-29 23:12:00,76.0,56.0,26.70,NW,321,0.0,0.0,50,0.00,,,0.00,,2013-08-30 05:12:00,
2013-08-29 23:23:00,76.0,56.0,26.70,NW,321,0.0,2.0,50,0.00,,,0.00,,2013-08-30 05:23:00,
2013-08-29 23:42:00,76.0,56.0,26.70,NW,322,0.0,0.0,50,0.00,,,0.00,,2013-08-30 05:42:00,
2013-08-29 23:52:00,75.0,55.0,26.70,NW,322,0.0,0.0,50,0.00,,,0.00,,2013-08-30 05:52:00,